[[{"header":{"parameterUnit":"m.s-1","parameterCategory":2,"la1":30.2991,"la2":30.254,"lo1":-89.0895,"lo2":-89.0444,"dy":0.0017,"dx":0.0017,"nx":28,"ny":28,"refTime":"2023-10-06T21:00:00:Z","depth":"0","parameterNumber":2,"parameterNumberName":"U-component_of_CURRENTS"},"data":[0,0,0,0,0,0,0,0,0,0,0,0,0,0,0,0,0,0,0,0,0,0,0,0,0,0,0,0,0,0,0,0,0,0,0,0,0,0,0,0,0,0,0,0,0,0,0,0,0,0,0,0,0,0,0,0,0,0,0.3082,0.3084,0,0.3215,0.3216,0.3217,0.3313,0.3315,0.3316,0.3318,0.3359,0.3359,0.3359,0,0,0,0,0,0,0,0,0,0,0,0,0,0.2963,0.2964,0.3082,0.3084,0.3086,0.3215,0.3216,0.3218,0.3313,0.3315,0.3317,0.3318,0.3359,0.3359,0.3359,0,0,0,0,0,0,0,0,0,0,0,0,0,0.3041,0.2964,0.3081,0.3154,0.3162,0.3215,0.3216,0.3218,0.3313,0.3315,0.3317,0.3319,0.3359,0.3359,0.3359,0.3316,0,0,0.3358,0.3358,0,0,0,0,0,0,0,0,0.3036,0.3044,0.3141,0.3149,0.3159,0.3255,0.3191,0.3249,0.3312,0.3249,0.3318,0.332,0.3318,0.3322,0.3335,0.3318,0.332,0.3358,0.3358,0.3358,0.3358,0,0,0,0,0,0,0,0.3031,0.304,0.3128,0.3143,0.3154,0.3199,0.3211,0.3202,0.3264,0.3255,0.3264,0.3288,0.3322,0.3335,0.3336,0.3321,0.3358,0.3358,0.3358,0.3358,0.3411,0.3412,0,0,0,0,0,0,0.3022,0.3034,0.3124,0.3133,0.3108,0.3199,0.3213,0.3217,0.3267,0.3279,0.3286,0.3292,0.3334,0.3336,0.3338,0.3382,0.3358,0.3358,0.3357,0.3409,0.3411,0.3413,0,0,0,0,0,0,0.3018,0.3027,0.3119,0.3093,0.3109,0.32,0.3204,0.3219,0.3251,0.3292,0.3302,0.3306,0.3336,0.3338,0.3359,0.3381,0.3357,0.3357,0.3407,0.341,0.3412,0.3411,0,0,0,0,0,0,0.3014,0.3025,0.3013,0.3091,0.311,0.3156,0.3203,0.322,0.3265,0.3274,0.3312,0.3317,0.3338,0.3359,0.3359,0.338,0.3357,0.3405,0.3408,0.3411,0.3409,0.3413,0.3416,0,0,0,0,0,0.3008,0.2992,0.3011,0.3022,0.3094,0.3157,0.3169,0.3238,0.3264,0.3273,0.3312,0.3317,0.3379,0.3359,0.3358,0.338,0.3404,0.3407,0.3411,0.3407,0.3412,0.3416,0,0,0,0,0,0,0.2931,0.3003,0.3025,0.3029,0.3091,0.3176,0.3187,0.3235,0.3272,0.3279,0.3316,0.3324,0.3359,0.3365,0.3343,0.341,0.3399,0.3403,0.3397,0.3401,0.3405,0.341,0.3357,0,0,0,0,0,0.2907,0.2916,0.2995,0.2999,0.3022,0.3101,0.3131,0.3183,0.3236,0.3256,0.3284,0.3323,0.3368,0.338,0.3407,0.3417,0.3435,0.344,0.3444,0.3447,0.3454,0.351,0.3519,0.3424,0.3424,0.3424,0,0,0.2883,0.2921,0.2928,0.2984,0.3029,0.3073,0.3123,0.3171,0.3218,0.3248,0.3289,0.3325,0.3375,0.3412,0.3428,0.342,0.348,0.3451,0.3453,0.3459,0.3514,0.3523,0.3531,0.3427,0.3426,0.3426,0,0,0.2855,0.2866,0.2874,0.2918,0.2991,0.3044,0.306,0.314,0.3181,0.3224,0.328,0.333,0.3364,0.3424,0.3457,0.349,0.3499,0.3502,0.3517,0.357,0.3578,0.3585,0.36,0.3608,0.3501,0.3501,0.3501,0,0.2828,0.2845,0.2887,0.2913,0.2954,0.3032,0.3066,0.3116,0.3198,0.3236,0.3236,0.3351,0.3379,0.3471,0.3496,0.3497,0.3517,0.3491,0.3573,0.3581,0.3588,0.3602,0.3611,0.3502,0.3502,0.3502,0.3501,0,0.2822,0.2836,0.2842,0.2903,0.2946,0.2985,0.307,0.3117,0.3167,0.3226,0.331,0.3358,0.3437,0.3459,0.3486,0.3569,0.3561,0.357,0.3556,0.3598,0.3609,0.3619,0.3502,0.3502,0.3502,0.3502,0,0,0.2776,0.2829,0.2834,0.2859,0.2946,0.2985,0.3058,0.3154,0.321,0.3273,0.3347,0.3434,0.3469,0.3511,0.3556,0.3601,0.366,0.3607,0.3609,0.3608,0.3755,0.3654,0.3655,0.3684,0.3687,0.3689,0.3734,0,0.2769,0.28,0.2839,0.2885,0.2913,0.3001,0.3059,0.3153,0.3228,0.3305,0.3391,0.3462,0.3489,0.3528,0.3584,0.3655,0.369,0.3645,0.3726,0.3728,0.3624,0.3665,0.3545,0.3568,0.3743,0.3745,0.3746,0,0.2762,0.2785,0.2818,0.2882,0.2902,0.2944,0.3062,0.3128,0.3261,0.3317,0.3418,0.3479,0.3589,0.3582,0.3718,0.369,0.3723,0.3757,0.376,0.3675,0.3646,0.3561,0.3579,0.3517,0.3761,0.376,0.3759,0,0.2721,0.2773,0.2795,0.2819,0.2905,0.2946,0.3006,0.3132,0.3196,0.3334,0.3389,0.3517,0.3585,0.3668,0.3757,0.3743,0.3877,0.3863,0.3797,0.3789,0.3707,0.3688,0.3665,0.3937,0.3937,0.3937,0.3937,0,0.2703,0.272,0.2774,0.2788,0.2826,0.2903,0.2969,0.306,0.318,0.3257,0.3386,0.3465,0.3612,0.371,0.377,0.3819,0.3894,0.3806,0.3804,0.37,0.368,0.3638,0.3609,0.3939,0.3938,0.3938,0.3938,0,0.2659,0.2692,0.2719,0.2787,0.2807,0.2838,0.2936,0.2992,0.3114,0.3224,0.3269,0.3445,0.3563,0.3685,0.3816,0.382,0.3773,0.3875,0.3722,0.37,0.3524,0.35,0.3322,0.3226,0.3786,0.3784,0.3782,0,0.2636,0.2645,0.2699,0.2712,0.274,0.2792,0.2834,0.2953,0.3019,0.3207,0.3254,0.3402,0.3507,0.3654,0.3693,0.3761,0.3691,0.3658,0.3599,0.3498,0.3473,0.3326,0.3249,0.3491,0.3487,0.3483,0.3481,0,0.2595,0.2616,0.2636,0.266,0.2691,0.273,0.2797,0.2834,0.2986,0.3075,0.3206,0.3302,0.3441,0.3462,0.3536,0.3562,0.3468,0.3586,0.3548,0.3286,0.3063,0.2975,0.3458,0.3451,0.3454,0.3456,0.3458,0.3459,0.2561,0.2561,0.2586,0.2599,0.263,0.2658,0.2658,0.2742,0.2816,0.2925,0.3077,0.3165,0.3274,0.335,0.3346,0.3259,0.3231,0.3185,0.3178,0.305,0.2898,0.3282,0.3229,0.323,0.3232,0.3233,0.3234,0,0.2505,0.2509,0.2523,0.2529,0.252,0.2571,0.2618,0.2603,0.2634,0.2777,0.2867,0.2974,0.2987,0.3054,0.3042,0.2924,0.2784,0.2837,0.2651,0.2609,0.3032,0.2962,0.2766,0.2766,0.2766,0.2767,0.2767,0.2767,0.2477,0.2456,0.2455,0.2409,0.2411,0.2371,0.2372,0.2373,0.2435,0.2488,0.2549,0.2651,0.2821,0.2856,0.2771,0.27,0.2516,0.2344,0.2349,0.272,0.2753,0.2784,0.2714,0.2469,0.2469,0.1823,0.1818,0.1815]},{"header":{"parameterUnit":"m.s-1","parameterCategory":2,"la1":30.2991,"la2":30.254,"lo1":-89.0895,"lo2":-89.0444,"dy":0.0017,"dx":0.0017,"nx":28,"ny":28,"refTime":"2023-10-06T21:00:00:Z","depth":"0","parameterNumber":3,"parameterNumberName":"V-component_of_CURRENTS"},"data":[0,0,0,0,0,0,0,0,0,0,0,0,0,0,0,0,0,0,0,0,0,0,0,0,0,0,0,0,0,0,0,0,0,0,0,0,0,0,0,0,0,0,0,0,0,0,0,0,0,0,0,0,0,0,0,0,0,0,-0.0021,-0.0022,0,-0.0152,-0.0153,-0.0154,-0.0251,-0.0252,-0.0252,-0.0253,-0.0376,-0.0379,-0.0381,0,0,0,0,0,0,0,0,0,0,0,0,0,0.0077,0.0077,-0.002,-0.0022,-0.0024,-0.0151,-0.0153,-0.0155,-0.025,-0.0252,-0.0253,-0.0254,-0.0376,-0.0378,-0.0381,0,0,0,0,0,0,0,0,0,0,0,0,0,0.0001,0.0076,-0.002,-0.0087,-0.0095,-0.0151,-0.0153,-0.0155,-0.025,-0.0252,-0.0253,-0.0254,-0.0375,-0.0378,-0.0382,-0.0378,0,0,-0.0393,-0.0395,0,0,0,0,0,0,0,0,0.0005,-0.0003,-0.0076,-0.0083,-0.0091,-0.0187,-0.0164,-0.023,-0.025,-0.019,-0.0253,-0.0255,-0.0312,-0.0321,-0.0341,-0.0383,-0.0389,-0.0393,-0.0396,-0.0397,-0.0398,0,0,0,0,0,0,0,0.0011,0.0002,-0.0072,-0.0078,-0.0087,-0.0135,-0.0147,-0.0177,-0.0241,-0.0196,-0.0203,-0.0219,-0.0316,-0.0338,-0.0345,-0.039,-0.0393,-0.0396,-0.0399,-0.04,-0.0481,-0.0481,0,0,0,0,0,0,0.003,0.0007,-0.0067,-0.0076,-0.0046,-0.0135,-0.0149,-0.0154,-0.0241,-0.0256,-0.0217,-0.0223,-0.0331,-0.0341,-0.035,-0.0356,-0.0397,-0.0401,-0.0403,-0.0481,-0.0481,-0.0481,0,0,0,0,0,0,0.0033,0.0026,-0.0062,-0.0039,-0.0053,-0.0135,-0.0141,-0.0156,-0.0178,-0.0258,-0.0273,-0.0224,-0.0332,-0.0344,-0.0377,-0.0361,-0.0402,-0.0405,-0.0481,-0.0481,-0.0481,-0.0364,0,0,0,0,0,0,0.0037,0.0028,0.0035,-0.0037,-0.0054,-0.0083,-0.014,-0.0158,-0.0186,-0.0194,-0.0268,-0.0282,-0.0334,-0.0371,-0.038,-0.0367,-0.0408,-0.0481,-0.0481,-0.0481,-0.0368,-0.036,-0.0353,0,0,0,0,0,0.0041,0.0056,0.0036,0.0027,-0.0042,-0.0082,-0.0094,-0.0158,-0.0184,-0.0184,-0.024,-0.0279,-0.0378,-0.0373,-0.0384,-0.0372,-0.0481,-0.0481,-0.0481,-0.0371,-0.0362,-0.0353,0,0,0,0,0,0,0.0096,0.0046,0.0022,0.002,-0.0022,-0.0098,-0.0104,-0.0145,-0.0189,-0.0194,-0.0271,-0.0287,-0.0314,-0.0358,-0.0351,-0.0399,-0.0439,-0.0441,-0.0352,-0.0343,-0.0336,-0.0305,-0.0411,0,0,0,0,0,0.0116,0.0116,0.0057,0.0055,0.0043,-0.0025,-0.0048,-0.0087,-0.0139,-0.0161,-0.0214,-0.0273,-0.0322,-0.0343,-0.0392,-0.0404,-0.043,-0.0409,-0.0401,-0.0394,-0.038,-0.0406,-0.0398,-0.0481,-0.0481,-0.0481,0,0,0.0132,0.0108,0.0104,0.0068,0.0032,0.0022,-0.0042,-0.0063,-0.0075,-0.0164,-0.0186,-0.0245,-0.0321,-0.0347,-0.0362,-0.0379,-0.0384,-0.0394,-0.0388,-0.0377,-0.0405,-0.0396,-0.0389,-0.0481,-0.0481,-0.0481,0,0,0.0168,0.0153,0.0163,0.0142,0.0103,0.0065,0.0066,0.0004,-0.0022,-0.0051,-0.0123,-0.0164,-0.0237,-0.0285,-0.0321,-0.0298,-0.0345,-0.0323,-0.0254,-0.0279,-0.0272,-0.0266,-0.0272,-0.0268,-0.0316,-0.0316,-0.0316,0,0.0188,0.0196,0.016,0.0166,0.0156,0.0093,0.0102,0.0071,0.0004,-0.0009,-0.0042,-0.0147,-0.0206,-0.0241,-0.0242,-0.0277,-0.0297,-0.0276,-0.0266,-0.026,-0.0256,-0.0265,-0.0261,-0.031,-0.0311,-0.0311,-0.0312,0,0.0226,0.0235,0.0244,0.0234,0.0223,0.0224,0.0179,0.0171,0.0133,0.0087,0.0049,-0.0032,-0.0094,-0.0124,-0.0177,-0.0181,-0.0206,-0.0251,-0.0277,-0.024,-0.0252,-0.0251,-0.0302,-0.0304,-0.0306,-0.0307,0,0,0.0261,0.0269,0.0273,0.0287,0.0263,0.0258,0.0263,0.0241,0.0245,0.0182,0.0179,0.0091,0.0044,0.0001,-0.0069,-0.0092,-0.0078,-0.0149,-0.0154,-0.0135,-0.0117,-0.0124,-0.0123,-0.0121,-0.0121,-0.012,-0.0131,0,0.0298,0.0337,0.0327,0.0362,0.0379,0.0348,0.036,0.0336,0.03,0.0285,0.0208,0.0168,0.0091,0.0066,0.0034,-0.006,-0.0071,-0.007,-0.0174,-0.0177,-0.0171,-0.0121,-0.0085,-0.0091,-0.0129,-0.0129,-0.0129,0,0.0338,0.0361,0.0408,0.0439,0.0445,0.0459,0.0475,0.0474,0.044,0.0414,0.0368,0.0294,0.0244,0.0174,0.0072,0.0075,-0.0001,-0.0068,-0.0071,-0.0115,-0.018,-0.0141,-0.0087,-0.0187,-0.0127,-0.0127,-0.0127,0,0.0383,0.0419,0.0465,0.0473,0.0495,0.052,0.053,0.0514,0.053,0.0494,0.0496,0.0411,0.0381,0.0272,0.013,0.0101,0.0025,-0.0038,-0.0107,-0.0108,-0.0116,-0.0119,-0.0153,-0.0088,-0.0088,-0.0088,-0.0088,0,0.0429,0.0465,0.0495,0.0521,0.0586,0.0579,0.0636,0.0632,0.0638,0.0675,0.0567,0.058,0.0405,0.0326,0.0185,0.0059,0.0069,-0.0072,-0.0106,-0.0075,-0.0074,-0.0196,-0.0292,-0.0088,-0.0088,-0.0088,-0.0088,0,0.047,0.0487,0.0544,0.0589,0.0611,0.0656,0.0716,0.0752,0.0747,0.0796,0.0792,0.0718,0.0624,0.0447,0.0283,0.0147,-0.0054,-0.0038,0.0021,-0.0006,-0.0176,-0.0268,-0.036,-0.042,-0.0112,-0.0112,-0.0112,0,0.0494,0.0529,0.06,0.0643,0.0669,0.0734,0.0786,0.0808,0.0856,0.0889,0.0926,0.0853,0.0829,0.0586,0.0338,0.0116,-0.003,-0.0012,-0.0068,-0.0155,-0.0283,-0.0339,-0.0388,-0.0028,-0.0028,-0.0027,-0.0027,0,0.054,0.0567,0.0615,0.0707,0.0772,0.0849,0.0926,0.0988,0.1032,0.1091,0.1159,0.1146,0.0925,0.0728,0.0411,0.0233,-0.0086,-0.001,-0.0119,-0.0224,-0.027,-0.0353,-0.0045,-0.0023,-0.0023,-0.0023,-0.0023,-0.0024,0.0575,0.0618,0.0686,0.0775,0.0853,0.0957,0.1036,0.1133,0.125,0.1363,0.1347,0.1383,0.1088,0.0667,0.0404,-0.0017,-0.0059,-0.0141,-0.0243,-0.0288,-0.0351,-0.0021,-0.0034,-0.0034,-0.0035,-0.0035,-0.0035,0,0.0616,0.0667,0.0749,0.0855,0.0948,0.0985,0.1126,0.1221,0.1384,0.1512,0.1591,0.1512,0.1125,0.0708,0.0129,-0.0177,-0.0302,-0.0348,-0.0416,-0.0457,-0.0164,-0.0164,-0.0182,-0.0182,-0.0182,-0.0182,-0.0182,-0.0182,0.0637,0.0717,0.076,0.0916,0.0997,0.1133,0.1221,0.1379,0.1509,0.1698,0.1774,0.1792,0.1514,0.0478,-0.0228,-0.042,-0.0622,-0.0661,-0.079,-0.0587,-0.0575,-0.0564,-0.0582,-0.0688,-0.0689,-0.1006,-0.1009,-0.1012]}],[{"header":{"parameterUnit":"m.s-1","parameterCategory":2,"la1":30.2991,"la2":30.254,"lo1":-89.0895,"lo2":-89.0444,"dy":0.0017,"dx":0.0017,"nx":28,"ny":28,"refTime":"2023-10-06T21:00:00:Z","depth":"2","parameterNumber":2,"parameterNumberName":"U-component_of_CURRENTS"},"data":[0,0,0,0,0,0,0,0,0,0,0,0,0,0,0,0,0,0,0,0,0,0,0,0,0,0,0,0,0,0,0,0,0,0,0,0,0,0,0,0,0,0,0,0,0,0,0,0,0,0,0,0,0,0,0,0,0,0,0.2472,0.2473,0,0.2523,0.2524,0.2524,0.2562,0.2562,0.2563,0.2563,0.2608,0.2608,0.2609,0,0,0,0,0,0,0,0,0,0,0,0,0,0.2441,0.2441,0.2472,0.2473,0.2474,0.2523,0.2524,0.2524,0.2562,0.2562,0.2563,0.2563,0.2607,0.2608,0.2609,0,0,0,0,0,0,0,0,0,0,0,0,0,0.2467,0.2441,0.2472,0.25,0.2503,0.2523,0.2524,0.2524,0.2561,0.2562,0.2563,0.2564,0.2607,0.2608,0.2609,0.26,0,0,0.2612,0.2613,0,0,0,0,0,0,0,0,0.2465,0.2468,0.2495,0.2498,0.2502,0.2539,0.2529,0.255,0.2561,0.2537,0.2563,0.2564,0.2585,0.2588,0.2593,0.2602,0.2604,0.2612,0.2613,0.2613,0.2614,0,0,0,0,0,0,0,0.2464,0.2466,0.249,0.2496,0.25,0.2522,0.2526,0.2533,0.2554,0.2539,0.2543,0.2551,0.2586,0.2591,0.2594,0.2605,0.2612,0.2613,0.2614,0.2614,0.2692,0.2694,0,0,0,0,0,0,0.2459,0.2464,0.2488,0.2492,0.2487,0.2522,0.2526,0.2524,0.2554,0.256,0.2551,0.2553,0.2589,0.2593,0.2596,0.265,0.2613,0.2614,0.2615,0.2691,0.2693,0.2694,0,0,0,0,0,0,0.2458,0.246,0.2486,0.2482,0.2487,0.2521,0.2519,0.2525,0.2554,0.2563,0.2569,0.2577,0.259,0.2594,0.2624,0.2649,0.2615,0.2616,0.2689,0.2692,0.2694,0.2717,0,0,0,0,0,0,0.2456,0.2459,0.2463,0.2481,0.2487,0.2513,0.2519,0.2525,0.2558,0.2562,0.2587,0.2591,0.2591,0.2623,0.2626,0.265,0.2617,0.2687,0.269,0.2693,0.2715,0.272,0.2725,0,0,0,0,0,0.2455,0.2456,0.2462,0.2466,0.2488,0.2514,0.2519,0.2545,0.2559,0.2574,0.2594,0.2592,0.2643,0.2625,0.2627,0.2653,0.2686,0.2689,0.2693,0.2712,0.2719,0.2724,0,0,0,0,0,0,0.2442,0.246,0.2468,0.2473,0.2499,0.2521,0.2535,0.2557,0.2585,0.259,0.2603,0.2608,0.2646,0.2648,0.2628,0.2686,0.2667,0.2671,0.2681,0.2687,0.2692,0.2699,0.2618,0,0,0,0,0,0.244,0.2446,0.247,0.2476,0.2487,0.2515,0.2532,0.2552,0.2576,0.259,0.261,0.2632,0.2658,0.2671,0.2688,0.2713,0.2719,0.2735,0.274,0.2744,0.2754,0.2798,0.2808,0.2705,0.2705,0.2705,0,0,0.2435,0.2447,0.245,0.2475,0.2491,0.2512,0.2527,0.2555,0.2583,0.2588,0.263,0.265,0.2669,0.2702,0.2719,0.2708,0.2772,0.2748,0.2751,0.2759,0.2803,0.2813,0.2822,0.2707,0.2707,0.2706,0,0,0.243,0.2439,0.2446,0.2468,0.2501,0.2519,0.2534,0.2569,0.2597,0.2632,0.2652,0.2688,0.2716,0.2742,0.2756,0.2799,0.2798,0.2811,0.2839,0.2881,0.289,0.2898,0.2891,0.2898,0.2811,0.2811,0.2811,0,0.2428,0.2435,0.2455,0.2471,0.2492,0.2525,0.2545,0.2576,0.2622,0.2651,0.2649,0.2725,0.2735,0.2793,0.2809,0.281,0.2822,0.281,0.2887,0.2895,0.2903,0.2894,0.2902,0.2813,0.2813,0.2813,0.2812,0,0.2429,0.2442,0.2449,0.2478,0.2504,0.2525,0.2569,0.2604,0.2637,0.2672,0.2741,0.2764,0.2812,0.2824,0.2827,0.2897,0.2881,0.2888,0.2868,0.2914,0.2902,0.291,0.2815,0.2815,0.2814,0.2814,0,0,0.2404,0.2442,0.2446,0.2462,0.251,0.2529,0.258,0.2636,0.2678,0.2728,0.2782,0.2838,0.2867,0.2887,0.2908,0.2943,0.299,0.2942,0.2943,0.2927,0.3059,0.3003,0.3005,0.3018,0.302,0.3022,0.3019,0,0.2401,0.2425,0.2452,0.2482,0.2499,0.2547,0.259,0.2649,0.2702,0.2759,0.2815,0.2872,0.2888,0.2915,0.296,0.2994,0.3016,0.2988,0.3024,0.3024,0.2964,0.3015,0.2786,0.2762,0.3026,0.3027,0.3028,0,0.2395,0.2413,0.2438,0.2486,0.2499,0.2528,0.2603,0.265,0.2742,0.2782,0.286,0.2907,0.2986,0.2978,0.307,0.3057,0.3062,0.3073,0.3074,0.3023,0.2984,0.2766,0.2765,0.304,0.3039,0.3038,0.3037,0,0.2363,0.2405,0.2423,0.2439,0.2498,0.2529,0.2572,0.2661,0.2711,0.2809,0.285,0.2951,0.3001,0.3055,0.3103,0.3094,0.3176,0.3159,0.3105,0.3098,0.291,0.2885,0.3206,0.3206,0.3206,0.3206,0.3206,0,0.2345,0.236,0.241,0.242,0.2453,0.2511,0.2565,0.2624,0.2713,0.2772,0.2868,0.2932,0.303,0.3095,0.3117,0.3144,0.3194,0.3119,0.311,0.2909,0.2885,0.3138,0.313,0.3206,0.3206,0.3206,0.3206,0,0.2304,0.2335,0.2358,0.2417,0.2437,0.2465,0.2549,0.2589,0.2685,0.2763,0.2798,0.2933,0.3025,0.3095,0.3169,0.3154,0.3181,0.3165,0.2903,0.2864,0.3057,0.3051,0.3097,0.3096,0.3094,0.3093,0.3092,0,0.2282,0.2289,0.2342,0.2354,0.2381,0.2431,0.2462,0.2561,0.2607,0.2764,0.2791,0.2919,0.2988,0.3075,0.3078,0.309,0.3156,0.2863,0.2811,0.3068,0.3054,0.305,0.3045,0.2548,0.2543,0.2538,0.2535,0,0.2239,0.2261,0.2278,0.2303,0.2332,0.236,0.2419,0.2449,0.2568,0.2632,0.273,0.2803,0.2907,0.2837,0.2868,0.2847,0.2849,0.2775,0.3126,0.2627,0.2555,0.254,0.2552,0.2496,0.25,0.2503,0.2505,0.2506,0.2205,0.2203,0.2226,0.2238,0.2266,0.2277,0.2269,0.2333,0.2381,0.2452,0.259,0.2609,0.2652,0.2597,0.2525,0.247,0.2667,0.2537,0.2548,0.2564,0.2518,0.2449,0.2358,0.2361,0.2363,0.2366,0.2368,0,0.2143,0.2147,0.2158,0.2158,0.2139,0.2192,0.2217,0.2185,0.2185,0.2283,0.2336,0.2183,0.215,0.2192,0.2053,0.2055,0.2014,0.1965,0.1885,0.1927,0.1964,0.1884,0.1557,0.1554,0.1551,0.1549,0,0,0.2112,0.2085,0.2081,0.2022,0.2024,0.1967,0.1958,0.1932,0.1955,0.1929,0.192,0.2083,0.215,0.183,0.1789,0.1646,0.1769,0.1582,0.2241,0.2192,0.2224,0.2312,0.224,0,0,0,0,0]},{"header":{"parameterUnit":"m.s-1","parameterCategory":2,"la1":30.2991,"la2":30.254,"lo1":-89.0895,"lo2":-89.0444,"dy":0.0017,"dx":0.0017,"nx":28,"ny":28,"refTime":"2023-10-06T21:00:00:Z","depth":"2","parameterNumber":3,"parameterNumberName":"V-component_of_CURRENTS"},"data":[0,0,0,0,0,0,0,0,0,0,0,0,0,0,0,0,0,0,0,0,0,0,0,0,0,0,0,0,0,0,0,0,0,0,0,0,0,0,0,0,0,0,0,0,0,0,0,0,0,0,0,0,0,0,0,0,0,0,0.022,0.0219,0,0.0149,0.0148,0.0147,0.0107,0.0107,0.0107,0.0107,0.0021,0.0018,0.0016,0,0,0,0,0,0,0,0,0,0,0,0,0,0.0262,0.0262,0.022,0.0219,0.0218,0.0149,0.0148,0.0147,0.0107,0.0107,0.0107,0.0107,0.0021,0.0019,0.0016,0,0,0,0,0,0,0,0,0,0,0,0,0,0.0221,0.0261,0.022,0.0191,0.0188,0.0149,0.0148,0.0147,0.0107,0.0107,0.0107,0.0107,0.0022,0.0019,0.0016,-0.0005,0,0,0.0005,0.0004,0,0,0,0,0,0,0,0,0.0224,0.022,0.0196,0.0193,0.0189,0.0138,0.0131,0.0096,0.0107,0.0136,0.0107,0.0107,0.0059,0.0053,0.0038,-0.0009,-0.0012,0.0005,0.0003,0.0001,0.0,0,0,0,0,0,0,0,0.0227,0.0222,0.019,0.0195,0.0191,0.0161,0.0156,0.0124,0.0097,0.0134,0.0131,0.0125,0.0057,0.0041,0.0036,-0.0014,0.0005,0.0002,-0.0,-0.0001,-0.0066,-0.0066,0,0,0,0,0,0,0.0241,0.0225,0.0193,0.0188,0.0208,0.0161,0.0155,0.0153,0.0098,0.009,0.0125,0.0123,0.0047,0.004,0.0032,0.0028,0.0001,-0.0002,-0.0004,-0.0067,-0.0066,-0.0066,0,0,0,0,0,0,0.0243,0.0239,0.0196,0.0206,0.0199,0.0161,0.0159,0.0152,0.0138,0.0092,0.0083,0.0119,0.0047,0.0037,0.0016,0.0024,-0.0003,-0.0006,-0.0067,-0.0066,-0.0066,0.0005,0,0,0,0,0,0,0.0244,0.024,0.0243,0.0207,0.0199,0.0182,0.0159,0.0151,0.0135,0.0132,0.0084,0.0076,0.0046,0.0022,0.0013,0.0019,-0.0009,-0.0067,-0.0067,-0.0066,0.0002,0.0008,0.0013,0,0,0,0,0,0.0246,0.0253,0.0244,0.024,0.0205,0.0183,0.0176,0.0147,0.0135,0.0134,0.0106,0.0078,0.0019,0.0019,0.0009,0.0014,-0.0068,-0.0067,-0.0066,-0.0,0.0007,0.0012,0,0,0,0,0,0,0.0269,0.0249,0.0238,0.0238,0.0217,0.0177,0.0174,0.0152,0.0127,0.0127,0.0082,0.0072,0.0054,0.0024,0.0026,-0.0004,-0.0029,-0.0031,0.0024,0.003,0.0035,0.0057,-0.0012,0,0,0,0,0,0.0278,0.028,0.0252,0.0252,0.0246,0.0211,0.0198,0.018,0.0153,0.0142,0.0107,0.0074,0.0048,0.0033,0.0003,-0.0013,-0.0038,-0.0017,-0.0012,-0.0007,0.0003,-0.0026,-0.0022,-0.0064,-0.0064,-0.0064,0,0,0.0286,0.0276,0.0276,0.0258,0.024,0.0239,0.0203,0.0193,0.0192,0.0137,0.0125,0.0089,0.0047,0.0033,0.0022,0.001,-0.0008,-0.0006,-0.0001,0.0006,-0.0025,-0.0021,-0.0017,-0.0063,-0.0063,-0.0063,0,0,0.0307,0.0298,0.0308,0.0298,0.0281,0.0262,0.0263,0.0228,0.0216,0.0198,0.0162,0.0137,0.0088,0.0067,0.0048,0.0063,0.0019,0.0047,0.0091,0.0063,0.0066,0.0069,0.0046,0.0046,0.0051,0.0051,0.0051,0,0.0317,0.0329,0.0307,0.0315,0.0316,0.0278,0.0292,0.0273,0.0235,0.0231,0.0205,0.0144,0.0107,0.0097,0.0101,0.0076,0.0052,0.0073,0.0071,0.0073,0.0075,0.005,0.0049,0.0055,0.0054,0.0054,0.0054,0,0.0347,0.0357,0.0364,0.0368,0.0364,0.037,0.0348,0.0343,0.0319,0.0293,0.0271,0.0217,0.0185,0.0164,0.0136,0.0131,0.0108,0.0081,0.006,0.0083,0.0056,0.0054,0.006,0.0058,0.0057,0.0057,0,0,0.0369,0.0383,0.0387,0.0405,0.0397,0.04,0.041,0.0405,0.0417,0.0366,0.0369,0.0315,0.0279,0.0257,0.0214,0.0186,0.0174,0.0144,0.0141,0.0129,0.0114,0.01,0.0095,0.0144,0.0144,0.0144,0.0092,0,0.0401,0.0437,0.0433,0.0472,0.0491,0.0476,0.0492,0.0484,0.0461,0.0452,0.0396,0.0375,0.0317,0.0303,0.0268,0.0197,0.0171,0.0191,0.0085,0.0083,0.0073,0.0093,0.0118,0.0073,0.0089,0.0089,0.0089,0,0.0434,0.0457,0.0503,0.0539,0.0548,0.0565,0.0594,0.06,0.058,0.0563,0.0528,0.0472,0.043,0.0373,0.0273,0.0287,0.0212,0.0152,0.0148,0.011,0.0064,0.0049,0.0068,0.0085,0.0085,0.0085,0.0086,0,0.0472,0.0509,0.0553,0.0564,0.0593,0.062,0.0635,0.0634,0.0655,0.0631,0.0633,0.0561,0.0535,0.043,0.03,0.0287,0.0185,0.0148,0.0066,0.0063,0.0052,0.0049,0.0081,0.0081,0.0081,0.0082,0.0082,0,0.0512,0.0547,0.0579,0.0605,0.0668,0.0669,0.0728,0.0732,0.0744,0.078,0.0693,0.07,0.0547,0.0463,0.0334,0.02,0.0209,0.0082,0.0052,0.0077,0.0077,0.0059,0.0057,0.008,0.008,0.008,0.0081,0,0.0548,0.0565,0.0621,0.0667,0.069,0.0735,0.0797,0.0836,0.0836,0.0881,0.0879,0.081,0.0708,0.0543,0.038,0.0258,0.0119,0.0066,0.0109,0.0085,0.0007,0.0009,-0.0026,-0.0027,-0.0028,-0.0028,-0.0029,0,0.0569,0.0602,0.0672,0.0714,0.074,0.0805,0.0857,0.0885,0.0933,0.0955,0.0987,0.0902,0.0862,0.0611,0.0385,0.0165,0.0125,0.0034,0.001,0.0024,-0.0003,0.0001,0.0004,0.0021,0.0021,0.0021,0.0021,0,0.061,0.0636,0.0684,0.0772,0.0836,0.0912,0.0988,0.1044,0.1087,0.1127,0.1167,0.1134,0.0906,0.0692,0.0384,0.0231,0.0068,0.0026,0.003,0.0047,0.0065,0.004,0.0042,0.002,0.0021,0.0021,0.0021,0.0021,0.0643,0.0684,0.0751,0.0836,0.0912,0.1011,0.1086,0.1168,0.1263,0.1331,0.1303,0.1256,0.1012,0.0623,0.0356,0.0069,0.0084,-0.0025,-0.0023,-0.0022,-0.0005,0.0011,-0.004,-0.004,-0.004,-0.004,-0.0041,0,0.0682,0.0731,0.0809,0.0913,0.1,0.1039,0.117,0.1246,0.1367,0.1417,0.1447,0.1211,0.0964,0.0666,0.0253,0.001,-0.0012,-0.0079,-0.0049,-0.0045,-0.0043,-0.0027,-0.0069,-0.007,-0.0071,-0.0071,0,0,0.0703,0.078,0.0821,0.0968,0.1046,0.1174,0.1255,0.1367,0.1434,0.1486,0.1458,0.1403,0.1049,0.0745,0.0414,0.0171,0.0116,0.0119,0.017,0.0249,0.0254,0.0018,0.0051,0,0,0,0,0]}],[{"header":{"parameterUnit":"m.s-1","parameterCategory":2,"la1":30.2991,"la2":30.254,"lo1":-89.0895,"lo2":-89.0444,"dy":0.0017,"dx":0.0017,"nx":28,"ny":28,"refTime":"2023-10-06T21:00:00:Z","depth":"4","parameterNumber":2,"parameterNumberName":"U-component_of_CURRENTS"},"data":[0,0,0,0,0,0,0,0,0,0,0,0,0,0,0,0,0,0,0,0,0,0,0,0,0,0,0,0,0,0,0,0,0,0,0,0,0,0,0,0,0,0,0,0,0,0,0,0,0,0,0,0,0,0,0,0,0,0,0.154,0.154,0,0.154,0.154,0.154,0.1552,0.1553,0.1553,0.1554,0.1571,0.1571,0.1571,0,0,0,0,0,0,0,0,0,0,0,0,0,0.1529,0.1529,0.154,0.154,0.154,0.154,0.154,0.154,0.1552,0.1553,0.1553,0.1554,0.1571,0.1571,0.1571,0,0,0,0,0,0,0,0,0,0,0,0,0,0.1531,0.153,0.154,0.1547,0.1548,0.154,0.154,0.154,0.1552,0.1553,0.1554,0.1554,0.1571,0.1571,0.1571,0.1558,0,0,0.1571,0.1571,0,0,0,0,0,0,0,0,0.1531,0.1531,0.1546,0.1547,0.1548,0.1548,0.1542,0.1547,0.1552,0.155,0.1554,0.1555,0.1565,0.1566,0.1562,0.1559,0.156,0.1571,0.1571,0.1571,0.1571,0,0,0,0,0,0,0,0.1531,0.1531,0.1539,0.1546,0.1547,0.1543,0.1544,0.1543,0.1553,0.155,0.1551,0.1553,0.1565,0.1562,0.1563,0.156,0.1571,0.1571,0.1571,0.1571,0.159,0.159,0,0,0,0,0,0,0.1534,0.1531,0.1539,0.1539,0.1542,0.1543,0.1544,0.1546,0.1553,0.1554,0.1552,0.1553,0.1562,0.1563,0.1563,0.1625,0.1571,0.1571,0.1571,0.1589,0.159,0.159,0,0,0,0,0,0,0.1533,0.1534,0.1539,0.1536,0.1537,0.1543,0.1545,0.1546,0.1575,0.1554,0.1556,0.1584,0.1562,0.1563,0.1585,0.1623,0.1571,0.1571,0.1589,0.159,0.159,0.17,0,0,0,0,0,0,0.1533,0.1534,0.1554,0.1536,0.1537,0.1551,0.1544,0.1546,0.1574,0.1576,0.1582,0.1582,0.1563,0.1585,0.1585,0.1622,0.1571,0.1588,0.1589,0.159,0.1696,0.1704,0.1712,0,0,0,0,0,0.1533,0.1547,0.1554,0.1556,0.1558,0.1552,0.1552,0.1557,0.1575,0.1587,0.1594,0.1584,0.159,0.1586,0.1586,0.1624,0.1588,0.1589,0.159,0.1692,0.1703,0.1711,0,0,0,0,0,0,0.1548,0.1549,0.1557,0.1571,0.1572,0.1555,0.1574,0.1579,0.1595,0.1612,0.1595,0.1596,0.163,0.1603,0.1599,0.1626,0.1585,0.1586,0.1663,0.1672,0.168,0.1684,0.1571,0,0,0,0,0,0.1561,0.1579,0.1571,0.1587,0.1594,0.1594,0.1602,0.1606,0.1608,0.1618,0.1622,0.1623,0.1627,0.1633,0.1628,0.1647,0.1639,0.1666,0.1674,0.1681,0.1681,0.1704,0.1715,0.1594,0.1594,0.1594,0,0,0.1571,0.1577,0.1587,0.1594,0.1601,0.1608,0.1601,0.1622,0.1637,0.1617,0.1655,0.1659,0.1638,0.1661,0.1673,0.165,0.1713,0.1682,0.1689,0.1685,0.1706,0.1718,0.1729,0.1595,0.1594,0.1594,0,0,0.1586,0.1608,0.1624,0.1632,0.1649,0.1645,0.1661,0.1666,0.1683,0.1707,0.1704,0.1731,0.173,0.1728,0.1724,0.1769,0.1759,0.1769,0.1815,0.1838,0.1849,0.1859,0.1883,0.1893,0.1769,0.1769,0.177,0,0.1602,0.1616,0.1628,0.1643,0.1656,0.1668,0.1682,0.1695,0.1709,0.1728,0.1732,0.1762,0.1759,0.1785,0.1804,0.1792,0.1802,0.179,0.1853,0.1861,0.1869,0.1891,0.1902,0.1775,0.1774,0.1774,0.1773,0,0.1612,0.164,0.1653,0.1678,0.1692,0.171,0.1723,0.1753,0.1781,0.1791,0.1841,0.1842,0.1859,0.1866,0.1854,0.1907,0.1898,0.187,0.1838,0.1889,0.1908,0.1917,0.1783,0.1781,0.1779,0.1778,0,0,0.1602,0.1651,0.166,0.1681,0.1716,0.1722,0.1764,0.1791,0.1827,0.1859,0.1901,0.193,0.1952,0.1947,0.1948,0.1969,0.2048,0.1953,0.1951,0.1993,0.2112,0.1991,0.1989,0.2043,0.2044,0.2046,0.2112,0,0.1608,0.1644,0.1669,0.1708,0.1724,0.1759,0.1792,0.1828,0.1863,0.1908,0.1936,0.1978,0.1975,0.2006,0.2032,0.2043,0.2073,0.2033,0.204,0.2041,0.194,0.1995,0.2051,0.2119,0.2121,0.2122,0.2123,0,0.1601,0.163,0.167,0.1726,0.174,0.1773,0.1835,0.1867,0.193,0.1963,0.2017,0.2039,0.2099,0.2079,0.2142,0.2123,0.2132,0.2132,0.2134,0.1983,0.1934,0.2048,0.2138,0.2137,0.2136,0.2135,0.2134,0,0.1567,0.1628,0.1664,0.1682,0.1746,0.1788,0.1831,0.1895,0.1932,0.2012,0.2053,0.2113,0.2164,0.2183,0.2209,0.2187,0.2261,0.2223,0.2121,0.2113,0.2157,0.2145,0.2262,0.2262,0.2262,0.2262,0.2261,0,0.154,0.1575,0.1662,0.1679,0.1733,0.179,0.1855,0.1904,0.1983,0.2025,0.2094,0.2135,0.2197,0.2242,0.2239,0.2216,0.2294,0.2139,0.2122,0.2201,0.2195,0.2164,0.2152,0.2264,0.2263,0.2263,0.2263,0,0.1486,0.1544,0.1592,0.1683,0.1718,0.1761,0.1865,0.1899,0.1996,0.2055,0.2088,0.2185,0.2244,0.2284,0.2325,0.2252,0.2236,0.2207,0.2313,0.23,0.2065,0.2058,0.2088,0.2084,0.2081,0.2079,0.2076,0,0.1455,0.1477,0.1586,0.1618,0.1667,0.1745,0.1786,0.1891,0.1924,0.2062,0.2074,0.2185,0.223,0.2192,0.2249,0.2239,0.2207,0.2181,0.2095,0.2067,0.2048,0.2046,0.2043,0.2071,0.207,0.207,0.2069,0,0.1393,0.1451,0.1492,0.156,0.1619,0.1663,0.174,0.1756,0.1867,0.1977,0.2002,0.2024,0.2091,0.2113,0.2132,0.2115,0.218,0.2146,0.2152,0.2071,0.2047,0.2031,0.2032,0.2058,0.2059,0.206,0.2061,0,0.1354,0.1368,0.1434,0.1478,0.1544,0.1555,0.161,0.1646,0.1696,0.1841,0.1854,0.1964,0.2075,0.2052,0.2066,0.2046,0.2,0.1903,0.192,0.1933,0.1848,0.1792,0.1719,0,0,0,0,0,0.1301,0.1302,0.134,0.1372,0.1431,0.1469,0.1556,0.161,0.1728,0.1694,0.1764,0.181,0.1835,0.1901,0.1847,0.2004,0.2014,0.1931,0.1913,0.1997,0.2009,0.1923,0,0,0,0,0,0,0.1263,0.1298,0.1303,0.1273,0.1277,0.1321,0.1373,0.1456,0.1442,0.1573,0.16,0.1694,0.1754,0.1847,0.1811,0.1829,0.1776,0.2006,0.2,0.1989,0.2001,0.2011,0.1927,0,0,0,0,0]},{"header":{"parameterUnit":"m.s-1","parameterCategory":2,"la1":30.2991,"la2":30.254,"lo1":-89.0895,"lo2":-89.0444,"dy":0.0017,"dx":0.0017,"nx":28,"ny":28,"refTime":"2023-10-06T21:00:00:Z","depth":"4","parameterNumber":3,"parameterNumberName":"V-component_of_CURRENTS"},"data":[0,0,0,0,0,0,0,0,0,0,0,0,0,0,0,0,0,0,0,0,0,0,0,0,0,0,0,0,0,0,0,0,0,0,0,0,0,0,0,0,0,0,0,0,0,0,0,0,0,0,0,0,0,0,0,0,0,0,0.0227,0.0227,0,0.0198,0.0198,0.0197,0.0194,0.0194,0.0195,0.0195,0.016,0.0159,0.0158,0,0,0,0,0,0,0,0,0,0,0,0,0,0.0245,0.0245,0.0228,0.0227,0.0227,0.0198,0.0198,0.0197,0.0194,0.0194,0.0195,0.0195,0.0161,0.0159,0.0158,0,0,0,0,0,0,0,0,0,0,0,0,0,0.0229,0.0245,0.0228,0.0221,0.022,0.0198,0.0198,0.0197,0.0194,0.0194,0.0195,0.0195,0.0161,0.016,0.0158,0.0139,0,0,0.0153,0.0152,0,0,0,0,0,0,0,0,0.023,0.0229,0.0223,0.0222,0.0221,0.02,0.0191,0.0178,0.0194,0.0204,0.0195,0.0195,0.0173,0.017,0.0164,0.0138,0.0136,0.0152,0.0151,0.0151,0.015,0,0,0,0,0,0,0,0.0231,0.023,0.0216,0.0222,0.0221,0.0208,0.0206,0.0189,0.0187,0.0204,0.0203,0.0199,0.0172,0.0166,0.0163,0.0136,0.0152,0.0151,0.015,0.0149,0.0119,0.012,0,0,0,0,0,0,0.0236,0.0231,0.0217,0.0215,0.0226,0.0207,0.0206,0.0206,0.0187,0.0185,0.0199,0.0199,0.0169,0.0165,0.0162,0.0164,0.0151,0.0149,0.0148,0.0119,0.012,0.012,0,0,0,0,0,0,0.0236,0.0235,0.0218,0.0222,0.0219,0.0207,0.0208,0.0206,0.0206,0.0184,0.0181,0.0202,0.0169,0.0165,0.0157,0.0162,0.0148,0.0147,0.0119,0.0119,0.012,0.0152,0,0,0,0,0,0,0.0237,0.0235,0.024,0.0222,0.0219,0.0214,0.0207,0.0205,0.0202,0.0203,0.0185,0.0182,0.0169,0.016,0.0155,0.0159,0.0145,0.0119,0.0119,0.012,0.0151,0.0154,0.0156,0,0,0,0,0,0.0238,0.0243,0.0241,0.0239,0.0225,0.0214,0.0211,0.0204,0.0202,0.0205,0.0195,0.0183,0.016,0.0159,0.0153,0.0157,0.0118,0.0119,0.012,0.015,0.0153,0.0156,0,0,0,0,0,0,0.0251,0.0243,0.024,0.0242,0.0233,0.0214,0.0216,0.0207,0.0201,0.0205,0.0184,0.018,0.0176,0.0161,0.0161,0.015,0.0137,0.0137,0.0162,0.0165,0.0168,0.0184,0.0144,0,0,0,0,0,0.0257,0.0262,0.0247,0.025,0.0247,0.0232,0.0228,0.0223,0.0212,0.021,0.0195,0.0182,0.0172,0.0166,0.0153,0.0145,0.0125,0.0144,0.0147,0.0149,0.0159,0.0129,0.013,0.0122,0.0122,0.0122,0,0,0.0262,0.0258,0.0261,0.0253,0.0247,0.025,0.0231,0.023,0.0235,0.0206,0.0209,0.019,0.0172,0.0166,0.0163,0.0156,0.014,0.015,0.0152,0.0161,0.013,0.013,0.0131,0.0122,0.0122,0.0122,0,0,0.0276,0.0274,0.0284,0.028,0.0274,0.0266,0.0268,0.0252,0.0251,0.0245,0.0229,0.0215,0.0196,0.0184,0.0176,0.0184,0.0155,0.0179,0.0204,0.0174,0.0175,0.0175,0.0147,0.0144,0.018,0.018,0.018,0,0.0284,0.0296,0.0284,0.0292,0.0297,0.0277,0.029,0.0282,0.0266,0.0266,0.0254,0.0225,0.0206,0.0201,0.0205,0.019,0.0169,0.0193,0.0178,0.0178,0.0177,0.0148,0.0145,0.0181,0.0181,0.0181,0.0181,0,0.0304,0.0316,0.0322,0.033,0.0331,0.0339,0.0329,0.0331,0.0322,0.0308,0.0299,0.0267,0.0253,0.0239,0.0225,0.0215,0.0199,0.0184,0.0171,0.018,0.0149,0.0145,0.0184,0.0183,0.0183,0.0182,0,0,0.0316,0.0334,0.0338,0.0356,0.0356,0.0362,0.0373,0.0376,0.0388,0.0358,0.0364,0.0332,0.0309,0.0299,0.0271,0.0243,0.0216,0.0217,0.0215,0.0191,0.0151,0.0142,0.0137,0.0196,0.0195,0.0195,0.0128,0,0.0339,0.037,0.0371,0.0406,0.0423,0.0419,0.0435,0.0435,0.0423,0.042,0.038,0.0373,0.0334,0.0328,0.0293,0.0239,0.0208,0.0235,0.0144,0.0142,0.0134,0.0133,0.0194,0.0125,0.0124,0.0124,0.0123,0,0.036,0.0381,0.0421,0.0458,0.0467,0.0486,0.0515,0.0525,0.0512,0.0503,0.0477,0.0441,0.0402,0.0366,0.0274,0.0293,0.023,0.018,0.0175,0.0156,0.0126,0.0114,0.0115,0.0116,0.0117,0.0117,0.0118,0,0.0382,0.0419,0.0458,0.0469,0.0502,0.0529,0.0548,0.0552,0.0573,0.0555,0.0559,0.0497,0.0478,0.0387,0.0282,0.0279,0.0173,0.0153,0.0084,0.0082,0.0095,0.0095,0.0087,0.0087,0.0087,0.0088,0.0088,0,0.0406,0.0438,0.0478,0.05,0.0559,0.0568,0.0621,0.0629,0.0642,0.0668,0.0606,0.0604,0.0483,0.0405,0.0299,0.0181,0.0184,0.0091,0.0066,0.0109,0.0112,0.0091,0.0093,0.0085,0.0086,0.0086,0.0087,0,0.0422,0.0445,0.0496,0.0548,0.0573,0.0615,0.0681,0.0713,0.0719,0.0749,0.0749,0.0688,0.0591,0.0457,0.0311,0.0216,0.0095,0.0051,0.0111,0.0089,0.0017,0.0021,-0.003,-0.0031,-0.0032,-0.0032,-0.0033,0,0.0432,0.046,0.0536,0.0576,0.0605,0.067,0.0719,0.0752,0.0786,0.08,0.0815,0.0741,0.068,0.0469,0.0323,0.0117,0.0085,0.0014,0.0012,0.0026,0.0006,0.0011,0.0016,-0.0034,-0.0034,-0.0034,-0.0035,0,0.0451,0.0482,0.0526,0.0611,0.0674,0.0743,0.0812,0.0844,0.0881,0.0887,0.0869,0.0761,0.0653,0.0481,0.0322,0.0172,0.0054,0.0006,0.0006,0.0004,0.0021,0.0003,0.0008,-0.0037,-0.0037,-0.0036,-0.0036,0,0.0469,0.0503,0.0567,0.0642,0.0721,0.0795,0.083,0.0874,0.0911,0.0921,0.0915,0.0793,0.0728,0.051,0.0362,0.0214,0.0173,0.0112,0.0106,0.0106,0.0161,0.0203,0.0183,0,0,0,0,0,0.0483,0.0523,0.0592,0.0676,0.0755,0.0806,0.0884,0.0911,0.0947,0.0941,0.0931,0.0828,0.062,0.0532,0.0384,0.0338,0.014,0.0157,0.0064,-0.005,-0.0048,-0.0008,0,0,0,0,0,0,0.0491,0.0555,0.059,0.0692,0.0753,0.0845,0.0897,0.0923,0.0919,0.0929,0.0824,0.0778,0.0578,0.0706,0.0378,0.0335,0.025,0.0065,0.0061,-0.0052,-0.0049,-0.0047,-0.0006,0,0,0,0,0]}]]